This demonstration page uses our WeatherBlox Daily Observations layout. Learn more.

Left ArrowRight Arrow

Hourly Observations for December 2, 2017

Temp ( °F °C ) Dew Point ( °F °C ) Humidity (%) Winds ( mph kmh ) Pressure ( in mb ) Visibility ( mi km ) Precip ( " mm )
12:02 am 00:02 Cloudy with Mist and Fog 49 9.4 49 9.4 100 100 Calm 30.18 1022 2 3 0.00 0.00
12:53 am 00:53 Mostly Cloudy with Fog 47 8.3 47 8.3 100 100 Calm 30.15 1021 0 0 0.00 0.00
1:53 am 01:53 Mostly Cloudy with Fog 45 7.2 45 7.2 100 100 Calm 30.14 1021 0 0 0.00 0.00
2:53 am 02:53 Mostly Cloudy with Fog 46 7.8 46 7.8 100 100 Calm 30.14 1021 0 0 0.00 0.00
3:13 am 03:13 Mostly Cloudy with Mist and Fog 46 7.8 46 7.8 100 100 Calm 30.18 1022 1 1 0.00 0.00
3:53 am 03:53 Mostly Cloudy with Mist and Fog 46 7.8 46 7.8 100 100 Calm 30.14 1021 1 1 0.00 0.00
4:53 am 04:53 Mostly Cloudy with Mist and Fog 46 7.8 46 7.8 100 100 Calm 30.14 1021 1 1 0.00 0.00
5:00 am 05:00 Partly Cloudy with Mist and Fog 46 7.8 46 7.8 100 100 Calm 30.18 1022 4 6 0.00 0.00
5:53 am 05:53 Clear with Mist and Fog 45 7.2 45 7.2 100 100 Calm 30.15 1021 5 8 0.00 0.00
6:53 am 06:53 Clear with Mist and Fog 46 7.8 46 7.8 100 100 Calm 30.17 1022 4 6 0.00 0.00
7:53 am 07:53 Sunny with Mist and Fog 46 7.8 46 7.8 100 100 Calm 30.17 1022 3 5 0.00 0.00
8:53 am 08:53 Sunny with Mist and Fog 50 10 50 10 100 100 Calm 30.19 1022 3 5 0.00 0.00
9:53 am 09:53 Partly Cloudy with Mist and Fog 55 12.8 54 12.2 96 96 Calm 30.20 1023 4 6 0.00 0.00
10:53 am 10:53 Cloudy with Haze 60 15.6 55 12.8 84 84 Calm 30.18 1022 4 6 0.00 0.00
11:53 am 11:53 Partly Cloudy 64 17.8 56 13.3 75 75 Calm 30.15 1021 4 6 0.00 0.00
12:53 pm 12:53 Sunny 67 19.4 56 13.3 68 68 Calm 30.13 1020 10 16 0.00 0.00
1:53 pm 13:53 Mostly Cloudy 67 19.4 55 12.8 66 66 Calm 30.11 1020 10 16 0.00 0.00
2:53 pm 14:53 Mostly Cloudy 69 20.6 55 12.8 61 61 Calm 30.09 1019 10 16 0.00 0.00
3:53 pm 15:53 Sunny 68 20 52 11.1 57 57 Calm 30.09 1019 10 16 0.00 0.00
4:53 pm 16:53 Partly Cloudy 66 18.9 52 11.1 61 61 Calm 30.10 1019 10 16 0.00 0.00
5:53 pm 17:53 Cloudy 62 16.7 55 12.8 78 78 Calm 30.11 1020 10 16 0.00 0.00
6:53 pm 18:53 Clear 57 13.9 54 12.2 90 90 Calm 30.12 1020 10 16 0.00 0.00
7:53 pm 19:53 Mostly Cloudy 55 12.8 54 12.2 96 96 Calm 30.14 1021 9 14 0.00 0.00
8:53 pm 20:53 Mostly Cloudy 57 13.9 54 12.2 90 90 Calm 30.15 1021 8 13 0.00 0.00
9:53 pm 21:53 Mostly Cloudy 54 12.2 54 12.2 100 100 Calm 30.16 1021 8 13 0.00 0.00
10:53 pm 22:53 Mostly Cloudy with Mist and Fog 54 12.2 53 11.7 97 97 Calm 30.17 1022 6 10 0.00 0.00
11:53 pm 23:53 Cloudy with Mist and Fog 53 11.7 53 11.7 100 100 Calm 30.16 1022 6 10 0.00 0.00

Powered by AerisWeather